Вернуться в каталог

FENGYUN 1C DEB

АктивенSSO
NORAD 31180·DEBRIS·🇨🇳 China

Запущен May 10, 1999 с Taiyuan Satellite Launch Center

Loading…

Ближайшие Пролёты (ближайшие 24 часа)

TLE

СвежийSource: Space-Track

Эпоха: Sep 13, 2026, 07:36 UTC

1 31180U 99025BJJ 26256.31687020  .00000164  00000-0  96987-4 0  9990
2 31180  99.2554  23.2932 0497068  59.9058 332.7289 13.70692219678285

Отслеживайте FENGYUN 1C DEB в реальном времени с AllMySat

Download on the App Store